Weather History for Morgantown, WV

Change the Weather History Date:

Monday, December 5, 2011

  Actual Average Record
Temperature  
Mean Temperature 58 °F 38 °F  
Max Temperature 67 °F 45 °F 75 °F (1982)
Min Temperature 48 °F 30 °F 11 °F (1974)
Degree Days  
Heating Degree Days 7 27  
Month to date heating degree days 96 133  
Since 1 July heating degree days 983 1181  
Cooling Degree Days 0 0  
Month to date cooling degree days 0 0  
Year to date cooling degree days 1009 814  
Growing Degree Days 8 (Base 50)    
Moisture  
Dew Point 43 °F    
Average Humidity 62    
Maximum Humidity 80    
Minimum Humidity 44    
Precipitation  
Precipitation 0.09 in 0.10 in 1.10 in (2013)
Month to date precipitation 0.09 0.51  
Year to date precipitation 53.98 39.43  
Sea Level Pressure  
Sea Level Pressure 30.16 in    
Wind  
Wind Speed 4 mph (South)    
Max Wind Speed 8 mph    
Max Gust Speed -    
Visibility 10 miles    
Events Rain    
T = Trace of Precipitation, MM = Missing Value Source: NWS Daily Summary

Daily Weather History Graph

Daily Weather History Graph

Search for Another Location

Airport:

Trip Planner

Search our weather history database for the weather conditions in past years. The results will help you decide how hot, cold, wet, or windy it might be!

Date:

Astronomy

Dec. 05, 2011 Rise Set
Actual Time 7:24 AM EST 4:55 PM EST
Civil Twilight 6:54 AM EST 5:25 PM EST
Nautical Twilight 6:21 AM EST 5:58 PM EST
Astronomical Twilight 5:48 AM EST 6:31 PM EST
Moon 1:51 PM EST (12/5) 2:45 AM EST (12/5)
Length of Visible Light 10h 30m
Length of Day
9h 30m
Waxing Gibbous, 79% of the Moon is Illuminated
Dec 5
Waxing Gibbous
Dec 10
Full
Dec 17
Last Quarter
Dec 24
New
Jan 1
First Quarter

Hourly Weather History & Observations

Time (EST) Temp. Dew Point Humidity Pressure Visibility Wind Dir Wind Speed Gust Speed Precip Events Conditions
12:53 AM 50.0 °F 33.1 °F 52% 30.24 in 10.0 mi SSE 3.5 mph - N/A   Clear
1:53 AM 52.0 °F 33.1 °F 49% 30.24 in 10.0 mi Calm Calm - N/A   Clear
2:53 AM 50.0 °F 36.0 °F 59% 30.23 in 10.0 mi SE 3.5 mph - N/A   Mostly Cloudy
3:53 AM 54.0 °F 37.9 °F 55% 30.22 in 10.0 mi South 4.6 mph - N/A   Overcast
4:53 AM 54.0 °F 39.9 °F 59% 30.21 in 10.0 mi South 3.5 mph - N/A   Scattered Clouds
5:53 AM 54.0 °F 39.9 °F 59% 30.21 in 10.0 mi Calm Calm - N/A   Scattered Clouds
6:53 AM 52.0 °F 39.9 °F 63% 30.23 in 10.0 mi Calm Calm - N/A   Partly Cloudy
7:53 AM 54.0 °F 39.9 °F 59% 30.23 in 10.0 mi South 3.5 mph - N/A   Mostly Cloudy
8:53 AM 55.9 °F 41.0 °F 57% 30.25 in 10.0 mi Calm Calm - N/A   Mostly Cloudy
9:53 AM 57.9 °F 42.1 °F 56% 30.25 in 10.0 mi South 5.8 mph - N/A   Mostly Cloudy
10:53 AM 62.6 °F 42.8 °F 48% 30.22 in 10.0 mi SSW 5.8 mph - N/A   Clear
11:53 AM 64.0 °F 43.0 °F 46% 30.19 in 10.0 mi Variable 6.9 mph - N/A   Mostly Cloudy
12:53 PM 64.9 °F 44.1 °F 47% 30.16 in 10.0 mi SSW 6.9 mph - N/A   Mostly Cloudy
1:53 PM 66.0 °F 44.1 °F 45% 30.12 in 10.0 mi Calm Calm - N/A   Mostly Cloudy
2:53 PM 64.9 °F 44.1 °F 47% 30.10 in 10.0 mi Calm Calm - N/A   Overcast
3:53 PM 64.0 °F 43.0 °F 46% 30.09 in 10.0 mi South 4.6 mph - N/A   Scattered Clouds
4:53 PM 61.0 °F 44.1 °F 54% 30.10 in 10.0 mi SSE 5.8 mph - N/A   Mostly Cloudy
5:53 PM 61.0 °F 43.0 °F 52% 30.10 in 10.0 mi South 6.9 mph - N/A   Mostly Cloudy
6:53 PM 61.0 °F 44.1 °F 54% 30.09 in 10.0 mi SSE 8.1 mph - N/A   Overcast
7:53 PM 61.0 °F 45.0 °F 56% 30.08 in 10.0 mi SE 8.1 mph - N/A   Mostly Cloudy
8:53 PM 61.0 °F 48.9 °F 64% 30.07 in 8.0 mi South 6.9 mph - 0.00 in Rain Light Rain
9:53 PM 57.2 °F 51.8 °F 82% 30.07 in 10.0 mi South 4.6 mph - N/A   Overcast
10:53 PM 57.0 °F 51.1 °F 81% 30.04 in 10.0 mi South 5.8 mph - 0.01 in   Overcast
11:53 PM 57.9 °F 51.1 °F 78% 30.01 in 10.0 mi South 4.6 mph - N/A   Scattered Clouds